Location: Coll
(42.4728°N, 0.7714°E)
Time: 11:31:34
(UTC+00:00)

Intercosmos 24 - Pass Details

Date: 23 October 2020
Orbit: 498 x 2379 km, 82.6° (Epoch: 30 November)

Event Time Altitude Azimuth Distance (km) Brightness Sun altitude
Rises 04:52:58 0° 354° (N) 3,084 7.6 -16.6°
Reaches altitude 10° 04:55:31 10° 357° (N) 1,986 6.6 -16.2°
Maximum altitude 04:59:37 63° 80° (E) 592 4.2 -15.4°
Drops below altitude 10° 05:03:06 10° 162° (SSE) 1,697 6.6 -14.8°
Sets 05:05:07 0° 166° (SSE) 2,584 7.5 -14.4°
